Theta_e
314 316 318 317 316 316 316 316 317 318 320 322 321 322 323 323 322 323 323 324 325 325 326 325 324 323 323 323 323 323 321 317 316 320 321 324 325 327 327 327 327 327 327 327
315 315 318 318 317 316 317 318 319 320 321 321 320 321 321 321 321 322 324 324 324 323 325 325 324 323 323 323 324 323 319 319 319 320 320 324 325 326 327 327 327 327 327 327
312 315 319 320 318 319 317 317 318 320 321 321 321 322 322 322 322 324 325 325 324 325 325 325 323 323 323 324 324 322 320 320 321 320 323 323 325 328 328 327 327 326 326 324
312 314 317 318 318 317 318 319 319 320 320 323 321 323 321 321 322 321 323 324 326 326 325 325 324 323 324 325 324 321 321 322 322 323 323 326 327 326 326 327 326 326 323 323
312 313 314 317 316 317 318 319 320 320 320 321 322 322 321 320 322 321 320 322 324 325 325 325 324 324 325 325 324 322 323 324 322 324 326 328 328 326 324 324 325 326 323 323
310 314 314 315 318 318 317 318 318 318 319 321 322 321 323 321 321 322 322 323 324 324 325 325 324 325 325 325 324 323 326 324 323 325 329 329 328 326 324 324 325 326 325 323
312 312 314 314 316 315 315 316 318 318 321 323 320 321 323 322 321 321 321 322 324 324 324 325 325 325 325 325 324 326 326 321 325 329 329 328 329 326 324 323 325 326 325 324
314 314 313 315 314 314 315 317 320 323 322 322 321 324 323 321 321 323 324 322 324 323 324 325 325 325 326 325 324 325 323 324 325 328 328 327 329 326 326 324 325 325 325 325
314 314 315 315 315 315 314 317 318 318 320 321 321 321 321 322 322 323 322 322 323 324 324 324 325 325 326 325 324 323 321 326 325 327 327 328 328 329 328 325 324 324 324 324
314 314 315 315 315 314 313 313 314 312 318 321 322 322 323 323 325 324 323 322 323 324 325 325 325 326 327 325 323 322 323 325 326 326 327 328 328 329 325 324 323 323 322 322
313 314 316 316 315 314 312 314 314 316 317 320 321 322 319 321 322 324 322 323 324 324 325 325 326 327 327 324 323 321 324 326 325 326 327 328 329 329 325 324 324 325 323 323
313 311 314 315 315 315 315 314 314 316 318 318 320 323 321 318 318 322 322 324 325 325 326 326 326 327 326 324 322 321 324 326 324 325 327 328 328 329 326 326 324 326 324 324
311 314 314 315 316 315 314 314 314 314 316 319 320 322 321 320 318 324 323 325 325 325 326 326 327 327 326 324 323 322 324 324 324 325 327 328 328 327 327 325 325 326 325 325
309 313 315 315 316 317 316 315 314 316 317 318 320 321 324 325 322 323 324 325 325 326 326 327 327 327 326 324 323 322 324 324 323 324 327 329 328 327 327 326 325 325 324 324
307 310 316 317 315 317 319 317 316 316 317 319 320 319 320 325 324 324 325 325 325 326 327 327 327 327 325 324 323 323 323 324 322 322 325 327 327 328 326 327 325 325 326 323
306 308 314 319 316 315 316 318 317 318 318 320 319 320 318 322 326 326 326 324 325 326 327 327 327 327 325 325 323 323 323 325 321 321 323 325 328 329 327 327 326 327 328 325
308 310 311 319 318 316 316 316 317 319 320 320 320 319 319 323 327 326 326 325 325 326 327 327 327 326 325 325 322 323 323 324 321 320 321 324 328 329 327 326 328 328 328 329
308 308 310 313 317 317 317 317 317 318 321 320 320 319 320 321 327 329 329 329 326 326 327 327 326 326 326 326 322 322 323 323 322 320 319 321 329 328 328 327 326 325 324 325
310 308 310 316 316 318 321 322 317 318 320 320 320 319 320 322 325 328 329 329 329 327 327 326 326 326 326 326 322 322 323 323 322 319 318 319 329 326 326 325 327 326 324 323
312 309 310 318 316 318 322 319 320 321 322 321 324 318 318 322 324 323 329 329 328 327 327 326 326 326 326 326 323 322 322 323 322 319 318 318 327 328 326 324 325 326 324 322
314 311 311 314 317 324 317 317 316 322 320 314 321 323 318 323 324 326 327 330 330 329 328 327 326 326 326 326 324 322 322 322 323 320 318 318 322 328 328 328 324 324 324 324
314 317 320 318 321 328 313 315 317 314 312 313 313 320 321 324 325 325 326 328 329 329 327 327 327 326 326 326 325 322 322 321 322 321 318 318 320 326 328 328 327 326 325 325
314 311 315 317 320 314 311 312 311 313 312 312 312 313 321 323 322 326 327 328 329 330 329 329 328 327 326 326 326 323 322 322 322 322 319 319 319 318 319 327 328 327 326 325
308 309 314 313 316 313 311 311 310 311 311 312 312 315 321 323 323 325 328 329 329 330 329 329 328 327 327 327 327 326 323 322 322 322 321 320 319 319 321 323 325 326 326 325
309 310 310 311 313 311 312 310 309 310 311 312 314 315 320 326 324 324 328 329 330 330 330 329 329 328 327 327 327 326 324 322 322 323 322 320 320 319 320 322 322 322 323 322
309 308 310 312 309 309 310 310 309 310 310 313 314 316 321 326 326 325 326 328 329 330 330 330 330 329 328 328 327 327 325 323 322 323 323 320 320 320 318 320 322 323 322 322
Wind_Speed
18 8 19 21 20 12 13 12 18 18 5 7 9 10 17 24 18 22 28 34 37 39 36 24 36 36 37 33 27 20 14 12 10 8 7 6 10 13 14 14 10 10 12 11
7 27 17 12 14 16 11 9 18 15 12 5 12 15 16 17 15 25 34 31 34 28 24 19 25 34 39 34 24 17 14 11 9 7 6 7 11 12 15 13 9 10 11 12
25 18 15 19 14 17 17 19 18 20 6 7 11 12 16 17 13 25 23 24 20 22 23 24 29 38 37 30 22 16 14 11 8 5 4 7 10 13 15 11 7 9 10 7
17 23 17 20 20 19 19 19 19 17 8 9 4 5 5 8 10 7 13 12 18 21 23 24 35 39 35 25 18 16 13 9 6 4 4 6 10 14 10 7 5 6 4 3
16 19 25 17 29 20 18 12 12 8 7 5 16 4 5 4 10 10 11 15 15 14 20 28 36 38 29 21 18 16 12 7 5 6 4 6 10 11 8 6 4 3 1 5
20 14 18 27 10 18 8 3 3 6 2 8 21 5 8 6 8 6 6 12 7 16 22 29 34 31 24 19 17 16 12 6 5 6 3 7 10 9 7 6 5 5 4 7
8 21 4 10 20 10 10 6 2 3 4 6 8 6 14 10 10 12 11 5 12 18 23 29 34 31 25 21 19 16 12 7 5 7 4 6 9 7 7 8 7 3 4 9
12 10 27 11 19 12 22 15 6 6 4 4 6 7 10 9 13 23 21 11 18 20 22 28 33 30 24 21 19 15 10 8 7 5 3 4 8 5 7 9 7 1 5 10
13 14 2 22 8 18 11 15 12 3 1 1 4 7 8 3 1 2 7 18 22 23 27 30 31 28 24 21 20 15 11 9 10 6 3 1 3 6 7 9 6 3 6 10
2 2 9 14 19 17 9 9 9 4 4 3 5 4 6 3 2 3 6 10 19 23 27 30 31 28 22 19 17 14 10 9 10 6 4 1 1 6 8 7 5 6 7 10
3 2 4 10 14 23 6 15 3 8 5 6 1 6 8 9 9 11 9 20 26 28 30 32 31 26 20 19 17 14 12 12 9 6 4 3 1 5 5 4 3 5 6 8
6 5 9 11 4 17 23 19 20 8 8 2 5 12 5 8 10 9 12 23 25 29 30 31 31 27 24 22 18 15 14 14 10 7 7 4 2 4 3 4 3 4 9 9
8 5 1 5 5 4 14 22 16 7 3 6 6 6 3 5 8 17 16 23 27 29 30 31 31 29 26 24 19 18 16 13 11 9 8 6 1 2 3 4 6 6 9 10
6 5 12 17 4 4 5 17 17 14 10 10 10 5 3 3 7 7 14 27 30 31 33 33 32 30 28 25 21 18 18 15 13 10 10 7 1 4 4 5 9 9 11 13
3 4 7 17 21 11 4 11 20 20 20 15 16 10 7 8 10 15 24 25 27 29 33 34 34 32 30 27 22 18 19 17 15 12 10 7 8 8 8 8 13 12 12 13
6 5 10 9 15 23 22 8 16 20 14 11 8 9 8 8 12 11 23 27 29 34 37 36 34 33 32 29 25 21 21 19 17 13 10 10 13 10 10 10 14 13 11 11
3 4 10 7 13 9 16 28 15 9 13 15 9 9 7 4 11 15 23 30 33 36 39 39 37 35 32 31 27 25 22 20 19 15 12 15 14 9 11 11 12 12 10 8
6 4 3 5 2 9 13 9 18 14 8 12 4 9 14 11 29 34 41 43 35 37 39 39 37 36 32 29 28 25 22 22 22 19 14 17 14 14 14 10 10 10 10 8
12 6 3 3 5 4 6 5 4 9 9 8 11 8 10 16 15 9 38 42 43 39 37 37 35 33 31 30 29 28 26 23 24 23 18 18 18 17 13 11 10 8 7 9
11 15 6 2 3 7 4 17 19 11 9 12 14 8 8 14 8 7 38 40 39 38 35 36 35 34 33 32 31 31 30 27 27 24 21 17 21 19 15 12 11 10 6 8
6 3 8 3 4 3 17 20 26 9 5 20 23 21 15 10 17 37 38 43 42 40 35 34 36 36 34 34 34 34 33 30 25 24 22 19 24 23 18 14 13 11 9 6
3 5 2 3 4 3 25 8 8 7 19 23 28 25 18 32 35 31 34 35 41 44 36 34 36 37 37 36 37 36 35 27 26 27 24 22 22 25 22 18 16 13 12 9
3 3 4 3 2 1 12 6 10 14 16 23 29 33 25 23 26 32 34 37 42 47 41 36 37 38 37 39 38 38 34 30 28 29 26 25 23 24 21 23 20 19 15 14
3 4 2 7 4 11 16 9 20 24 24 30 30 27 20 9 22 33 34 41 44 48 45 40 38 38 39 41 40 35 35 32 31 31 27 27 28 26 26 24 23 21 19 17
3 2 4 5 9 16 4 32 32 34 34 32 35 27 24 11 5 25 37 43 45 48 46 42 41 39 39 39 41 40 37 35 34 32 29 28 30 30 28 28 25 22 20 17
2 1 1 1 18 11 14 28 36 27 33 35 37 35 32 23 5 11 32 42 45 47 47 45 43 38 37 38 41 40 39 37 37 36 34 30 29 33 31 30 30 27 21 19
Wind_Direction
185 197 210 202 209 216 228 234 247 258 213 233 240 252 274 282 290 281 282 274 261 258 244 241 233 226 205 201 200 201 212 212 219 219 242 287 316 319 321 317 287 278 280 274
182 227 210 208 210 218 232 246 256 281 265 246 276 269 270 283 278 275 271 266 259 248 243 236 221 204 198 197 192 199 203 206 202 219 251 296 315 321 321 316 292 283 281 276
203 221 197 206 212 217 224 230 247 251 299 226 278 282 278 279 290 283 263 261 254 253 258 226 202 194 192 192 189 201 199 198 198 231 255 302 319 320 320 322 293 291 295 284
227 218 182 205 223 212 231 221 241 256 276 271 116 290 294 279 289 285 262 229 245 251 239 211 193 188 189 184 188 193 193 188 202 220 260 308 329 335 333 341 324 307 310 209
205 198 222 223 219 205 237 225 244 255 258 298 271 265 255 267 287 266 269 252 252 242 212 197 191 187 180 180 188 187 185 182 219 224 266 324 337 342 349 353 329 321 233 191
222 206 206 222 203 213 233 229 287 265 234 254 264 163 276 230 226 264 261 292 254 189 188 191 185 176 173 179 185 185 182 192 208 204 241 327 331 336 350 349 335 309 232 196
188 228 221 175 218 209 194 112 271 307 198 222 234 180 239 257 245 247 250 198 175 181 184 187 178 175 177 182 182 182 186 208 201 192 236 325 337 334 1 357 342 314 189 186
192 213 212 189 202 191 210 187 176 201 183 213 181 236 252 242 258 243 243 211 171 179 188 185 179 175 181 182 182 181 192 182 194 202 216 334 339 342 350 352 5 15 182 178
201 231 215 198 189 183 199 206 181 358 278 72 208 285 323 268 305 206 157 169 177 186 190 184 177 182 182 184 183 184 180 171 188 201 242 312 339 8 355 2 21 100 152 168
279 166 216 206 200 211 159 153 188 192 228 219 263 254 230 256 199 191 159 166 176 187 185 181 180 182 183 184 179 185 180 173 186 183 155 117 9 3 14 19 66 111 127 153
267 148 301 156 202 196 164 231 156 160 186 177 179 257 211 213 186 190 213 182 183 187 185 181 182 182 180 179 182 187 183 186 189 182 176 208 307 356 22 25 111 79 143 156
279 208 244 217 282 187 200 205 212 200 211 208 164 257 227 209 191 170 197 188 189 192 182 182 181 180 182 181 182 189 185 193 184 188 185 185 260 339 30 30 135 97 130 148
326 276 219 274 270 187 204 204 201 206 96 210 156 258 248 215 195 190 182 188 190 188 182 183 182 182 187 185 184 189 186 184 183 187 182 184 240 17 50 32 138 126 128 133
325 268 234 220 196 173 167 198 196 193 210 219 231 260 213 147 164 169 178 191 189 185 184 183 185 187 191 188 187 188 186 188 186 183 189 181 188 112 65 70 131 129 121 129
23 268 274 258 238 272 213 176 199 205 209 198 230 204 215 192 189 200 185 185 181 183 186 188 190 191 194 191 187 184 186 187 188 187 192 182 159 117 94 96 123 131 124 131
356 287 329 259 235 231 251 258 204 206 208 218 177 216 200 190 125 148 183 175 182 189 191 192 194 195 197 193 188 184 186 188 190 191 186 170 161 128 110 101 127 123 126 139
260 334 351 274 223 222 248 240 239 221 201 190 180 214 149 136 174 182 187 189 190 193 194 194 196 197 198 196 189 184 185 187 193 191 182 169 165 170 139 111 119 120 107 126
240 258 220 278 214 198 246 202 219 222 218 215 181 174 175 176 197 199 202 199 196 198 197 199 198 199 199 197 192 183 183 189 194 190 183 178 175 174 169 153 128 118 105 105
222 202 247 245 211 305 200 22 165 168 252 210 228 196 194 182 164 206 209 207 205 201 207 200 197 197 198 197 192 186 187 192 196 193 186 183 179 181 178 179 175 152 118 108
327 178 187 321 231 195 32 325 322 305 197 356 351 296 155 136 170 224 212 212 208 207 207 201 200 201 199 198 194 190 191 195 198 195 189 184 187 190 188 185 180 171 139 122
343 143 228 299 283 332 345 323 307 138 275 322 327 318 279 181 195 210 210 216 210 205 210 204 204 203 200 199 196 196 195 198 197 195 190 188 193 195 200 196 193 186 177 152
305 314 163 178 261 273 344 12 57 305 318 320 321 316 301 230 206 208 202 205 203 204 206 207 206 207 204 200 198 199 201 196 195 197 191 193 195 195 199 202 198 203 207 193
252 315 326 323 48 25 339 75 358 347 326 330 316 315 317 265 238 201 201 197 199 199 206 208 207 209 207 203 202 203 204 197 195 198 195 198 194 193 192 199 201 204 205 211
252 318 315 319 89 310 293 350 350 351 336 333 328 332 338 263 228 214 200 195 198 201 204 208 209 212 208 205 206 209 205 198 196 199 198 199 203 198 195 197 203 208 210 211
245 282 341 304 305 334 197 329 336 339 339 340 349 355 353 14 190 217 199 200 202 202 205 209 212 214 215 207 207 209 208 201 199 198 200 200 209 208 203 206 205 207 214 220
221 267 351 275 293 292 280 310 321 323 335 350 354 356 20 23 41 209 210 202 205 204 204 208 213 212 214 212 209 210 210 205 202 198 202 204 209 211 211 212 214 217 220 226